Regional Weather Roundup
Issued by NWS

Home | Current Version | Previous Version | Graphics & Text | Print | Product List | Glossary Off
Versions: 1 2 3 4 5 6 7 8 9 10 11 12 13 14 15 16 17 18 19 20 21 22 23 24 25 26 27 28 29 30 31 32 33 34 35 36 37 38 39 40 41 42 43 44 45 46 47 48 49 50

592
ASUS43 KTOP 230908
RWRKS

WEATHER ROUNDUP FOR KANSAS
NATIONAL WEATHER SERVICE GOODLAND KS
400 AM CDT SUN JUL 23 2017

NOTE:  "FAIR" INDICATES FEW OR NO CLOUDS BELOW 12,000 FEET WITH NO
SIGNIFICANT WEATHER AND/OR OBSTRUCTIONS TO VISIBILITY.

KSZ001>006-013>018-027>032-041>047-231000-
NORTHWEST KANSAS

CITY           SKY/WX    TMP DP  RH WIND       PRES   REMARKS
GOODLAND       MOCLDY    60  55  83 CALM      30.10F
HAYS           CLOUDY    71  67  87 N6        29.98F
HILL CITY      PTCLDY    68  68 100 SW5       30.01S FOG
RUSSELL        CLOUDY    71  67  87 W8        29.96F
$$

KSZ061>065-074>080-084>089-231000-
SOUTHWEST KANSAS

CITY           SKY/WX    TMP DP  RH WIND       PRES   REMARKS
DODGE CITY     PTCLDY    72  65  78 W9        30.01R
ELKHART          N/A     69  54  58 NW9         N/A
GARDEN CITY    PTCLDY    69  64  84 N7        30.03F
LIBERAL        RAIN      70  66  87 E5        30.00F
PRATT          CLOUDY    72  63  73 E8        29.95S
$$

KSZ066>073-081>083-090>101-231000-
SOUTHEAST KANSAS

CITY           SKY/WX    TMP DP  RH WIND       PRES   REMARKS
CHANUTE        LGT RAIN  72  69  90 N12G18    29.89F
COFFEYVILLE    CLOUDY    76  66  71 SE5       29.87F
HUTCHINSON     TSTM      72  66  81 N9        29.99R
MEDICINE LODGE   N/A     74  66  76 NE6       29.91R
NEWTON         TSTM      70  66  88 NE15G35   29.95R FOG
PARSONS        LGT RAIN  75  67  76 VRB5      29.87F
WICHITA INTL   CLOUDY    72  69  90 E9        29.90F
WICHITA JABRA  PTCLDY    73  67  81 E12       29.89F
WICHITA MCCONL PTCLDY    73  66  80 SE13      29.90F
WINFIELD       CLEAR     74  68  81 E6        29.91F
$$

KSZ007>012-019>026-033>040-048>060-102>105-231000-
NORTHEAST KANSAS

CITY           SKY/WX    TMP DP  RH WIND       PRES   REMARKS
CONCORDIA      PTCLDY    68  68 100 W7        29.95S
EMPORIA        CLOUDY    72  65  78 S17G25    29.89S
LAWRENCE       CLOUDY    71  70  96 NE6       29.90F
MANHATTAN      MOCLDY    70  69  97 CALM      29.91F
MARYSVILLE     CLEAR     70  68  94 CALM      29.92S
OLATHE IND     CLOUDY    71  68  90 E5        29.93F
OLATHE EXE     CLOUDY    70  69  97 S3        29.93F
SALINA         CLOUDY    74  68  81 N3        29.93R
TOPEKA BILLARD MOCLDY    72  71  97 E5        29.91F
TOPEKA FORBES  CLOUDY    72  70  93 E6        29.92S
$$




USA.gov is the U.S. government's official web portal to all federal, state and local government web resources and services.